Weather History for Savoonga, AK

Change the Weather History Date:

Monday, April 28, 2014

  Actual Average Record
Temperature  
Mean Temperature 25 °F -  
Max Temperature 33 °F 25 °F 37 °F (2005)
Min Temperature 17 °F 17 °F 10 °F (2001)
Degree Days  
Heating Degree Days 40    
Moisture  
Dew Point 23 °F    
Average Humidity 84    
Maximum Humidity 100    
Minimum Humidity 60    
Precipitation  
Precipitation 0.00 in - - ()
Sea Level Pressure  
Sea Level Pressure 29.63 in    
Wind  
Wind Speed 10 mph (South)    
Max Wind Speed 39 mph    
Max Gust Speed 44 mph    
Visibility 7 miles    
Events      
Averages and records for this station are not official NWS values.
T = Trace of Precipitation, MM = Missing Value Source: NWS Daily Summary

Daily Weather History Graph

Daily Weather History Graph

Search for Another Location

Airport:

Trip Planner

Search our weather history database for the weather conditions in past years. The results will help you decide how hot, cold, wet, or windy it might be!

Date:

Astronomy

Apr. 28, 2014 Rise Set
Actual Time 7:06 AM AKDT 11:34 PM AKDT
Civil Twilight 6:02 AM AKDT 12:39 AM AKDT
Nautical Twilight 3:40 AM AKDT 2:46 AM AKDT
Astronomical Twilight Sun does not rise Sun does not rise
Moon 7:13 AM AKDT (4/28) 11:19 PM AKDT (4/28)
Length of Visible Light 18h 36m
Length of Day
16h 27m
Waning Crescent, 0% of the Moon is Illuminated
Apr 28
Waning Crescent
Apr 28
New
May 6
First Quarter
May 14
Full
May 21
Last Quarter

Hourly Weather History & Observations

Time (AKDT) Temp. Windchill Dew Point Humidity Pressure Visibility Wind Dir Wind Speed Gust Speed Precip Events Conditions
12:16 AM 24.8 °F 20.5 °F 21.2 °F 86% 29.71 in 10.0 mi SSW 3.5 mph - N/A   Clear
12:36 AM 24.8 °F 19.1 °F 19.4 °F 80% 29.71 in 10.0 mi SSW 4.6 mph - N/A   Clear
12:56 AM 24.8 °F 19.1 °F 21.2 °F 86% 29.71 in 10.0 mi South 4.6 mph - N/A   Clear
1:16 AM 24.8 °F - 19.4 °F 80% 29.71 in 10.0 mi Calm Calm - N/A   Clear
1:36 AM 24.8 °F 20.5 °F 19.4 °F 80% 29.71 in 10.0 mi South 3.5 mph - N/A   Clear
1:56 AM 24.8 °F 20.5 °F 19.4 °F 80% 29.72 in 10.0 mi South 3.5 mph - N/A   Clear
2:16 AM 23.0 °F 17.0 °F 17.6 °F 80% 29.72 in 10.0 mi SW 4.6 mph - N/A   Clear
2:36 AM 24.8 °F - 19.4 °F 80% 29.72 in 10.0 mi Calm Calm - N/A   Clear
2:56 AM 19.4 °F 9.5 °F 15.8 °F 86% 29.73 in 6.0 mi WSW 8.1 mph - N/A   Scattered Clouds
3:16 AM 21.2 °F 13.6 °F 17.6 °F 86% 29.73 in 0.2 mi SW 5.8 mph - N/A   Overcast
3:36 AM 21.2 °F 16.4 °F 21.2 °F 100% 29.73 in 2.0 mi SSW 3.5 mph - N/A   Mostly Cloudy
3:56 AM 23.0 °F 15.8 °F 19.4 °F 86% 29.72 in 10.0 mi SSW 5.8 mph - N/A   Partly Cloudy
4:16 AM 21.2 °F 13.6 °F 21.2 °F 100% 29.72 in 10.0 mi SSW 5.8 mph - N/A   Clear
4:36 AM 23.0 °F 17.0 °F 15.8 °F 74% 29.72 in 10.0 mi SSW 4.6 mph - N/A   Clear
4:56 AM 23.0 °F 17.0 °F 19.4 °F 86% 29.71 in 10.0 mi SW 4.6 mph - N/A   Clear
5:16 AM 24.8 °F 20.5 °F 19.4 °F 80% 29.71 in 10.0 mi SW 3.5 mph - N/A   Clear
5:36 AM 23.0 °F - 19.4 °F 86% 29.71 in 10.0 mi Calm Calm - N/A   Clear
5:56 AM 21.2 °F - 15.8 °F 80% 29.71 in 10.0 mi Calm Calm - N/A   Clear
6:16 AM 21.2 °F - 15.8 °F 80% 29.71 in 10.0 mi Calm Calm - N/A   Clear
6:36 AM 19.4 °F - 14.0 °F 80% 29.71 in 10.0 mi Calm Calm - N/A   Clear
6:56 AM 17.6 °F 12.3 °F 14.0 °F 86% 29.70 in 10.0 mi East 3.5 mph - N/A   Clear
7:16 AM 19.4 °F - 17.6 °F 93% 29.71 in 10.0 mi Calm Calm - N/A   Clear
7:36 AM 19.4 °F - 17.6 °F 93% 29.70 in 10.0 mi Calm Calm - N/A   Clear
7:56 AM 21.2 °F 16.4 °F 17.6 °F 86% 29.70 in 10.0 mi East 3.5 mph - N/A   Clear
8:16 AM 21.2 °F 16.4 °F 19.4 °F 93% 29.70 in 10.0 mi East 3.5 mph - N/A   Clear
8:36 AM 19.4 °F 12.8 °F 12.2 °F 74% 29.69 in 10.0 mi East 4.6 mph - N/A   Clear
8:56 AM 21.2 °F 14.9 °F 21.2 °F 100% 29.69 in 10.0 mi ENE 4.6 mph - N/A   Clear
9:16 AM 21.2 °F 16.4 °F 19.4 °F 93% 29.69 in 10.0 mi East 3.5 mph - N/A   Clear
9:36 AM 26.6 °F - 21.2 °F 80% 29.68 in 10.0 mi North - - N/A   Clear
9:56 AM 33.8 °F 27.7 °F 21.2 °F 60% 29.68 in 10.0 mi SE 6.9 mph - N/A   Clear
10:16 AM 32.0 °F 26.4 °F 19.4 °F 60% 29.67 in 10.0 mi NNW 5.8 mph - N/A   Clear
10:36 AM 30.2 °F 23.4 °F 19.4 °F 64% 29.67 in 10.0 mi SE 6.9 mph - N/A   Clear
10:56 AM 32.0 °F - 21.2 °F 64% 29.67 in 10.0 mi Calm Calm - N/A   Clear
11:16 AM 33.8 °F 22.2 °F 21.2 °F 60% 29.66 in 10.0 mi South 20.7 mph - N/A   Clear
11:56 AM 30.2 °F 17.1 °F 24.8 °F 80% 29.64 in 10.0 mi South 21.9 mph - N/A   Clear
12:16 PM 30.2 °F 15.9 °F 24.8 °F 80% 29.64 in 10.0 mi South 26.5 mph - N/A   Mostly Cloudy
12:36 PM 32.0 °F 19.5 °F 24.8 °F 75% 29.64 in 10.0 mi South 21.9 mph - N/A   Overcast
12:56 PM 30.2 °F 18.1 °F 24.8 °F 80% 29.64 in 2.5 mi South 18.4 mph 21.9 mph N/A   Overcast
1:16 PM 28.4 °F 16.6 °F 24.8 °F 86% 29.63 in 1.0 mi South 16.1 mph 26.5 mph N/A   Overcast
1:36 PM 28.4 °F 17.5 °F 23.0 °F 80% 29.64 in 2.5 mi South 13.8 mph 18.4 mph N/A   Overcast
1:56 PM 28.4 °F 15.8 °F 23.0 °F 80% 29.63 in 10.0 mi South 18.4 mph 24.2 mph N/A   Overcast
2:16 PM 28.4 °F 15.4 °F 24.8 °F 86% 29.63 in 10.0 mi South 19.6 mph - N/A   Overcast
2:36 PM 30.2 °F 17.4 °F 24.8 °F 80% 29.62 in 10.0 mi SSE 20.7 mph 26.5 mph N/A   Overcast
2:56 PM 30.2 °F 17.8 °F 24.8 °F 80% 29.61 in 9.0 mi SSE 19.6 mph 25.3 mph N/A   Overcast
3:16 PM 30.2 °F 19.8 °F 26.6 °F 86% 29.61 in 1.0 mi SE 13.8 mph 20.7 mph N/A   Overcast
3:36 PM 30.2 °F 18.9 °F 26.6 °F 86% 29.59 in 0.8 mi SE 16.1 mph 20.7 mph N/A   Overcast
3:56 PM 30.2 °F 18.9 °F 26.6 °F 86% 29.58 in 0.8 mi ESE 16.1 mph - N/A   Overcast
4:16 PM 30.2 °F 18.9 °F 26.6 °F 86% 29.56 in 0.8 mi ESE 16.1 mph 23.0 mph N/A   Overcast
4:36 PM 30.2 °F 18.5 °F 26.6 °F 86% 29.55 in 0.2 mi ESE 17.3 mph 25.3 mph N/A   Overcast
4:56 PM 30.2 °F 17.1 °F 26.6 °F 86% 29.54 in 0.5 mi SE 21.9 mph 25.3 mph N/A   Overcast
5:16 PM 30.2 °F 17.1 °F 26.6 °F 86% 29.53 in 0.5 mi SSE 21.9 mph 32.2 mph N/A   Overcast
5:36 PM 30.2 °F 16.8 °F 26.6 °F 86% 29.52 in 0.5 mi SSE 23.0 mph 31.1 mph N/A   Overcast
5:56 PM 30.2 °F 15.7 °F 28.4 °F 93% 29.51 in 0.5 mi South 27.6 mph 33.4 mph N/A   Overcast
6:16 PM 30.2 °F 15.2 °F 28.4 °F 93% 29.50 in 0.2 mi South 29.9 mph 38.0 mph N/A   Overcast
6:36 PM 32.0 °F 17.2 °F 28.4 °F 87% 29.49 in 0.2 mi South 32.2 mph 40.3 mph N/A   Overcast
6:56 PM 32.0 °F 16.0 °F 28.4 °F 87% 29.48 in 0.5 mi South 39.1 mph 43.7 mph N/A   Overcast
7:16 PM 32.0 °F 17.6 °F 28.4 °F 87% 29.47 in 0.8 mi SSW 29.9 mph 36.8 mph N/A   Overcast
7:36 PM 33.8 °F 20.5 °F 30.2 °F 87% 29.48 in 1.0 mi SSW 27.6 mph - N/A   Overcast
7:56 PM 33.8 °F 20.1 °F 28.4 °F 81% 29.48 in 4.0 mi SSW 29.9 mph 34.5 mph N/A   Mostly Cloudy
8:16 PM 32.0 °F 18.4 °F 30.2 °F 93% 29.49 in 3.0 mi SW 26.5 mph 29.9 mph N/A   Overcast
8:36 PM 32.0 °F 18.9 °F 28.4 °F 87% 29.50 in 5.0 mi SW 24.2 mph - N/A   Overcast
8:56 PM 32.0 °F 19.2 °F 28.4 °F 87% 29.50 in 6.0 mi WSW 23.0 mph - N/A   Overcast
9:16 PM 30.2 °F 15.7 °F 26.6 °F 86% 29.51 in 8.0 mi WSW 27.6 mph - N/A   Overcast
9:36 PM 30.2 °F 15.9 °F 28.4 °F 93% 29.52 in 9.0 mi SW 26.5 mph - N/A   Overcast
9:56 PM 30.2 °F 16.8 °F 26.6 °F 86% 29.53 in 10.0 mi SW 23.0 mph - N/A   Overcast
10:16 PM 30.2 °F 15.9 °F 26.6 °F 86% 29.54 in 7.0 mi WSW 26.5 mph - N/A   Overcast
10:36 PM 30.2 °F 16.5 °F 26.6 °F 86% 29.55 in 8.0 mi SW 24.2 mph 31.1 mph N/A   Overcast
10:56 PM 30.2 °F 17.4 °F 26.6 °F 86% 29.55 in 10.0 mi SW 20.7 mph - N/A   Overcast
11:16 PM 30.2 °F 16.2 °F 26.6 °F 86% 29.56 in 10.0 mi SW 25.3 mph - N/A   Overcast
11:36 PM 30.2 °F 16.8 °F 26.6 °F 86% 29.57 in 10.0 mi WSW 23.0 mph - N/A   Overcast
11:56 PM 30.2 °F 16.5 °F 26.6 °F 86% 29.58 in 9.0 mi SW 24.2 mph - N/A   Overcast